When you browse on this site, cookies collect data to enhance your experience and personalize the content and advertising you see.
Visit our Privacy Policy to learn more. By continuing to use the site, you agree to this use of cookies and data.
  • In Österreich
  • Länderverzeichnis
  • Für 7 Tage
  • Wassertemperatur
  • Wetterkarte
  • News
  • Widgets
  • user-avatar
    Anmelden

    Stündliche Wetter Luchenki

    Heute, 15 Dezember, Sonntag

    Zeit Temperatur Niederschläge Wind Luftdruck Luftfeuchtigkeit
    00:00 -1°C° 0 mm 5 m/S 741 mmHg 87%
    01:00 -1°C° 0 mm 5 m/S 740 mmHg 88%
    02:00 -1°C° 0 mm 5 m/S 740 mmHg 88%
    03:00 -1°C° 0.2 mm 4 m/S 740 mmHg 90%
    04:00 -1°C° 0.2 mm 4 m/S 739 mmHg 93%
    05:00 -1°C° 0.2 mm 4 m/S 738 mmHg 95%
    06:00 -1°C° 0.3 mm 4 m/S 738 mmHg 95%
    07:00 0°C° 0.3 mm 4 m/S 738 mmHg 95%
    08:00 0°C° 0.3 mm 4 m/S 737 mmHg 95%
    09:00 +1°C° 0.6 mm 4 m/S 737 mmHg 95%
    10:00 +1°C° 0.6 mm 4 m/S 737 mmHg 95%
    11:00 +1°C° 0.6 mm 4 m/S 737 mmHg 95%
    12:00 +1°C° 0.3 mm 4 m/S 737 mmHg 94%
    13:00 +1°C° 0.3 mm 4 m/S 737 mmHg 93%
    14:00 +1°C° 0.3 mm 4 m/S 737 mmHg 92%
    15:00 +1°C° 0 mm 4 m/S 738 mmHg 92%
    16:00 +1°C° 0 mm 4 m/S 738 mmHg 92%
    17:00 0°C° 0 mm 4 m/S 739 mmHg 92%
    18:00 0°C° 0 mm 4 m/S 739 mmHg 90%
    19:00 0°C° 0 mm 4 m/S 740 mmHg 88%
    20:00 0°C° 0 mm 4 m/S 740 mmHg 86%
    21:00 0°C° 0 mm 4 m/S 740 mmHg 89%
    22:00 -1°C° 0 mm 4 m/S 741 mmHg 91%
    23:00 -1°C° 0 mm 3 m/S 741 mmHg 93%

    Morgen, 16 Dezember, Montag

    Zeit Temperatur Niederschläge Wind Luftdruck Luftfeuchtigkeit
    00:00 -1°C° 0 mm 4 m/S 741 mmHg 92%
    01:00 -1°C° 0 mm 4 m/S 741 mmHg 90%
    02:00 -1°C° 0 mm 4 m/S 741 mmHg 89%
    03:00 0°C° 0.1 mm 4 m/S 741 mmHg 90%
    04:00 0°C° 0.1 mm 4 m/S 740 mmHg 92%
    05:00 0°C° 0.1 mm 4 m/S 740 mmHg 93%
    06:00 +1°C° 0 mm 4 m/S 740 mmHg 92%
    07:00 +1°C° 0 mm 5 m/S 741 mmHg 90%
    08:00 +1°C° 0 mm 5 m/S 741 mmHg 89%
    09:00 +1°C° 0 mm 5 m/S 741 mmHg 86%
    10:00 +1°C° 0 mm 6 m/S 741 mmHg 84%
    11:00 +1°C° 0 mm 6 m/S 741 mmHg 81%
    12:00 +1°C° 0.1 mm 6 m/S 741 mmHg 83%
    13:00 0°C° 0.1 mm 7 m/S 741 mmHg 85%
    14:00 0°C° 0.1 mm 7 m/S 742 mmHg 87%
    15:00 0°C° 0 mm 7 m/S 742 mmHg 83%
    16:00 +1°C° 0 mm 6 m/S 743 mmHg 79%
    17:00 +2°C° 0 mm 6 m/S 744 mmHg 74%
    18:00 +1°C° 0 mm 5 m/S 745 mmHg 76%
    19:00 +1°C° 0 mm 5 m/S 745 mmHg 78%
    20:00 +1°C° 0 mm 4 m/S 746 mmHg 81%
    21:00 0°C° 0 mm 4 m/S 746 mmHg 84%
    22:00 0°C° 0 mm 4 m/S 747 mmHg 88%
    23:00 0°C° 0 mm 3 m/S 747 mmHg 92%

    übermorgen, 17 Dezember, Dienstag

    Zeit Temperatur Niederschläge Wind Luftdruck Luftfeuchtigkeit
    00:00 0°C° 0 mm 3 m/S 747 mmHg 92%
    01:00 0°C° 0 mm 3 m/S 748 mmHg 93%
    02:00 +1°C° 0 mm 2 m/S 748 mmHg 93%
    03:00 0°C° 0 mm 3 m/S 748 mmHg 91%
    04:00 0°C° 0 mm 3 m/S 747 mmHg 88%
    05:00 0°C° 0 mm 3 m/S 747 mmHg 86%
    06:00 0°C° 0.1 mm 3 m/S 747 mmHg 86%
    07:00 +1°C° 0.1 mm 3 m/S 746 mmHg 87%
    08:00 0°C° 0.1 mm 4 m/S 746 mmHg 88%
    09:00 0°C° 0.6 mm 4 m/S 746 mmHg 89%
    10:00 +1°C° 0.6 mm 4 m/S 745 mmHg 91%
    11:00 +2°C° 0.6 mm 5 m/S 745 mmHg 93%
    12:00 +3°C° 0.6 mm 4 m/S 745 mmHg 93%
    13:00 +3°C° 0.6 mm 4 m/S 745 mmHg 94%
    14:00 +3°C° 0.6 mm 4 m/S 744 mmHg 94%
    15:00 +3°C° 0.2 mm 3 m/S 745 mmHg 94%
    16:00 +3°C° 0.2 mm 3 m/S 745 mmHg 94%
    17:00 +3°C° 0.2 mm 3 m/S 745 mmHg 94%
    18:00 +3°C° 0.1 mm 3 m/S 745 mmHg 95%
    19:00 +4°C° 0.1 mm 2 m/S 745 mmHg 95%
    20:00 +3°C° 0.1 mm 2 m/S 746 mmHg 96%
    21:00 +3°C° 0 mm 2 m/S 746 mmHg 96%
    22:00 +3°C° 0 mm 2 m/S 746 mmHg 97%
    23:00 +3°C° 0 mm 2 m/S 746 mmHg 97%

    18 Dezember, Mittwoch

    Zeit Temperatur Niederschläge Wind Luftdruck Luftfeuchtigkeit
    00:00 +4°C° 0 mm 1 m/S 746 mmHg 97%
    01:00 +4°C° 0 mm 1 m/S 746 mmHg 97%
    02:00 +4°C° 0 mm 1 m/S 746 mmHg 98%
    03:00 +4°C° 0 mm 1 m/S 746 mmHg 97%
    04:00 +3°C° 0 mm 2 m/S 746 mmHg 97%
    05:00 +3°C° 0 mm 2 m/S 746 mmHg 97%
    06:00 +3°C° 0 mm 2 m/S 745 mmHg 96%
    07:00 +3°C° 0 mm 2 m/S 745 mmHg 96%
    08:00 +3°C° 0 mm 2 m/S 745 mmHg 96%
    09:00 +2°C° 0 mm 3 m/S 745 mmHg 95%
    10:00 +2°C° 0 mm 3 m/S 745 mmHg 93%
    11:00 +3°C° 0 mm 3 m/S 745 mmHg 92%
    12:00 +3°C° 0 mm 3 m/S 745 mmHg 91%
    13:00 +3°C° 0 mm 3 m/S 744 mmHg 91%
    14:00 +3°C° 0 mm 3 m/S 744 mmHg 90%
    15:00 +3°C° 0 mm 3 m/S 744 mmHg 91%
    16:00 +3°C° 0 mm 3 m/S 744 mmHg 92%
    17:00 +3°C° 0 mm 3 m/S 744 mmHg 92%
    18:00 +3°C° 0 mm 3 m/S 744 mmHg 93%
    19:00 +3°C° 0 mm 4 m/S 743 mmHg 93%
    20:00 +3°C° 0 mm 4 m/S 743 mmHg 93%
    21:00 +3°C° 0 mm 4 m/S 743 mmHg 92%
    22:00 +3°C° 0 mm 4 m/S 743 mmHg 92%
    23:00 +2°C° 0 mm 5 m/S 743 mmHg 91%

    19 Dezember, Donnerstag

    Zeit Temperatur Niederschläge Wind Luftdruck Luftfeuchtigkeit
    00:00 +2°C° 0 mm 5 m/S 743 mmHg 91%
    01:00 +2°C° 0 mm 5 m/S 742 mmHg 91%
    02:00 +2°C° 0 mm 5 m/S 742 mmHg 91%
    03:00 +3°C° 0 mm 5 m/S 742 mmHg 90%
    04:00 +3°C° 0 mm 5 m/S 742 mmHg 88%
    05:00 +3°C° 0 mm 5 m/S 742 mmHg 87%
    06:00 +4°C° 0 mm 4 m/S 743 mmHg 86%
    07:00 +4°C° 0 mm 4 m/S 743 mmHg 85%
    08:00 +4°C° 0 mm 4 m/S 744 mmHg 84%
    09:00 +3°C° 0 mm 4 m/S 744 mmHg 83%
    10:00 +3°C° 0 mm 4 m/S 745 mmHg 81%
    11:00 +2°C° 0 mm 3 m/S 745 mmHg 80%
    12:00 +2°C° 0 mm 3 m/S 745 mmHg 80%
    13:00 +2°C° 0 mm 3 m/S 745 mmHg 79%
    14:00 +3°C° 0 mm 2 m/S 745 mmHg 79%
    15:00 +2°C° 0 mm 2 m/S 746 mmHg 81%
    16:00 +2°C° 0 mm 2 m/S 746 mmHg 83%
    17:00 +2°C° 0 mm 2 m/S 746 mmHg 85%
    18:00 +1°C° 0 mm 2 m/S 746 mmHg 87%
    19:00 -1°C° 0 mm 2 m/S 747 mmHg 90%
    20:00 -1°C° 0 mm 2 m/S 747 mmHg 92%
    21:00 -1°C° 0 mm 2 m/S 747 mmHg 91%
    22:00 -1°C° 0 mm 2 m/S 747 mmHg 89%
    23:00 -1°C° 0 mm 2 m/S 747 mmHg 88%

    20 Dezember, Freitag

    Zeit Temperatur Niederschläge Wind Luftdruck Luftfeuchtigkeit
    00:00 +1°C° 0 mm 2 m/S 747 mmHg 86%
    01:00 +1°C° 0 mm 2 m/S 748 mmHg 83%
    02:00 +1°C° 0 mm 2 m/S 748 mmHg 81%
    03:00 -1°C° 0 mm 2 m/S 748 mmHg 81%
    04:00 +1°C° 0 mm 1 m/S 748 mmHg 82%
    05:00 +1°C° 0 mm 1 m/S 748 mmHg 82%
    06:00 0°C° 0 mm 1 m/S 748 mmHg 84%
    07:00 0°C° 0 mm 1 m/S 748 mmHg 86%
    08:00 0°C° 0 mm 1 m/S 748 mmHg 88%
    09:00 0°C° 0 mm 1 m/S 748 mmHg 86%
    10:00 0°C° 0 mm 1 m/S 749 mmHg 84%
    11:00 +1°C° 0 mm 1 m/S 749 mmHg 82%
    12:00 +1°C° 0 mm 1 m/S 749 mmHg 82%
    13:00 +1°C° 0 mm 1 m/S 749 mmHg 82%
    14:00 +1°C° 0 mm 1 m/S 748 mmHg 81%
    15:00 +1°C° 0 mm 1 m/S 748 mmHg 84%
    16:00 0°C° 0 mm 1 m/S 749 mmHg 86%
    17:00 -1°C° 0 mm 1 m/S 749 mmHg 88%
    18:00 -1°C° 0 mm 1 m/S 749 mmHg 88%
    19:00 -1°C° 0 mm 1 m/S 749 mmHg 88%
    20:00 -1°C° 0 mm 1 m/S 749 mmHg 88%
    21:00 -1°C° 0 mm 1 m/S 749 mmHg 89%
    22:00 -1°C° 0 mm 1 m/S 749 mmHg 90%
    23:00 -1°C° 0 mm 1 m/S 749 mmHg 91%
    Mehr zeigen